Location: Hoyos del Collado
(40.3594°N, 5.2003°W)
Time: 07:31:40
(UTC+00:00)

SPOT 5 - Visible Passes

Search period start: 18 July 2024 00:00
Search period end: 28 July 2024 00:00
Orbit: 621 x 808 km, 98.1° (Epoch: 17 July)

Date Brightness Start Highest point End Pass type
(mag) Time Alt. Az. Time Alt. Az. Time Alt. Az.
18 Jul 3.0 20:52:16 12° SSE 20:56:52 69° ENE 21:02:01 10° N visible
18 Jul 5.4 22:33:06 10° WSW 22:35:24 13° W 22:37:46 10° WNW visible
19 Jul 4.0 21:39:21 13° SSW 21:43:28 42° W 21:48:22 10° NNW visible
20 Jul 3.1 20:47:19 11° SSE 20:51:59 62° ENE 20:57:08 10° N visible
20 Jul 5.4 22:27:37 10° SW 22:30:26 15° W 22:33:20 10° NW visible
21 Jul 3.8 21:34:25 14° S 21:38:33 47° W 21:43:34 10° NNW visible
22 Jul 3.2 20:42:23 11° SSE 20:47:07 56° ENE 20:52:14 10° N visible
22 Jul 5.3 22:22:15 10° SW 22:25:28 17° W 22:28:47 10° NW visible
23 Jul 3.7 21:29:29 14° S 21:33:38 52° W 21:38:46 10° NNW visible
24 Jul 3.3 20:37:27 11° SE 20:42:14 51° ENE 20:47:19 10° N visible
24 Jul 5.2 22:16:57 10° SW 22:20:31 19° W 22:24:11 10° NW visible
25 Jul 3.5 21:24:33 15° S 21:28:42 59° W 21:33:56 10° NNW visible
26 Jul 3.5 20:32:32 10° SE 20:37:21 46° ENE 20:42:24 10° N visible
26 Jul 5.1 22:11:42 10° SW 22:15:33 21° W 22:19:30 10° NW visible
27 Jul 3.4 21:19:38 16° S 21:23:48 65° W 21:29:04 10° NNW visible
